CZ-4C R/B, 41039

Orbit data source: Space-Track

CZ-4C R/B, 41039 is space debris in SSO originally from a launch on Thu, 26 Nov 2015 UTC launched from the Taiyaun Space Center, China (TSC). Debris objects in space refer to the collection of defunct objects orbiting the Earth. Examples of debris include non-operational satellites, rocket bodies, and fragments generated from explosions, collisions, or faulty payload assembly.

Loading next visibility...
Identifier
41039, 2015-069B
Orbit
SSO
Country
Flag of CNCN / PRC
Related business
Manufacturer
SAST
Mission
Spacecraft
Bus & Motor
CZ-4 STAGE 3, Unknown motor
Mass
~1,000 kg wet, ~1,000 kg dry
Launch date (UTC)
2015-11-26 (10 years ago)
Launch vehicle
Unknown
Launch site
Taiyaun Space Center, China (TSC)
Object type
Payload
Rocket body
Debris
Shape & HBR
Cyl, 1.4 m
Radar Cross Section
20.385 m², Large (>1 m²)

Expand to show TLE details & history
Last TLE update: 11 hours ago

TLE from 11 hours ago
0 CZ-4C R/B
1 41039U 15069B   25259.13857077  .00008982  00000-0  32379-3 0  9993
2 41039  97.5157 321.7828 0064357  56.0293 304.7038 15.26789676540218
Epoch: 2025-09-16T03:19Z
TLE epoch observation values (Epoch: 2025-09-16T03:19:32.514Z)
Latitude
-0.0001°
Longitude
-83.43583°
Altitude
463.552 km
Speed
7.649 km/s
True Right ascension
21h 27m 07s
True Declination
0° 00' 00"
Sunlit
Object was in full shadow at epoch
Visualization orbit readout
Latitude
Unknown
Longitude
Unknown
Altitude
Unknown
Speed
Unknown
Apparent Right ascension
Unknown
Apparent Declination
Unknown
Sunlit
N/A
Visualization observer readout
Local Sidereal Time
06:37:47
Azimuth
Unknown
Elevation
Unknown
Doppler factor
Unknown
Orbital elements
Apogee altitude
526.53 km
Perigee altitude
438.226 km
Semi-major axis
6,860.515 km
Eccentricity
0.00644
Inclination
97.5157°
RAAN
321.7828°
Arg. of periapsis
56.0293°
True anomaly
304.09474°
Mean anomaly
304.7038°
Eccentric anomaly
304.39955°
Mean motion
3.81951 °/min
Orbital period
94.25 mins
BSTAR
0.00032379
Loading maneuver chart data...
Computing Atmospheric mass density...
Loading historical data...
Loading historical data...
Loading historical data...
Loading historical data...
Loading historical data...
Loading historical data...
Loading historical data...
Other satellites on launch #69 in the year 2015 (2015-11-26 UTC)

Documentation

Showing up to 5 results
|